DL1GFM-6 Weather Reports


time (UTC)temp
C
wind
direction
speed
KPH
gust
KPH
rain 1hr
cm
rain 24hr
cm
rain mn
cm
humidity
%
barometer
mb
20190823140516 26 294 3.2 6.4 0.00 0.00 0.00 46 1019.3
20190823135523 26 113 3.2 8.0 0.00 0.00 0.00 44 1019.4
20190823134519 26 82 3.2 9.7 0.00 0.00 0.00 44 1019.4
20190823133516 26 138 3.2 6.4 0.00 0.00 0.00 44 1019.4
20190823132523 26 43 3.2 3.2 0.00 0.00 0.00 45 1019.5
20190823131521 26 57 3.2 6.4 0.00 0.00 0.00 45 1019.7
20190823130518 26 345 3.2 6.4 0.00 0.00 0.00 44 1019.7
20190823125524 26 40 3.2 9.7 0.00 0.00 0.00 45 1019.7
20190823124519 26 53 3.2 8.0 0.00 0.00 0.00 45 1019.7
20190823123516 26 59 3.2 9.7 0.00 0.00 0.00 45 1019.9
20190823122522 26 58 4.8 6.4 0.00 0.00 0.00 45 1019.9
20190823121518 26 19 3.2 6.4 0.00 0.00 0.00 46 1020.0
20190823120523 26 347 3.2 4.8 0.00 0.00 0.00 45 1020.0
20190823115519 25 61 4.8 6.4 0.00 0.00 0.00 45 1020.2
20190823114516 25 105 4.8 6.4 0.00 0.00 0.00 45 1020.3
20190823113523 25 20 3.2 8.0 0.00 0.00 0.00 47 1020.3
20190823112520 25 39 3.2 4.8 0.00 0.00 0.00 47 1020.3
20190823111516 25 59 4.8 11.3 0.00 0.00 0.00 45 1020.4
20190823110524 25 16 4.8 9.7 0.00 0.00 0.00 48 1020.6
20190823105521 24 59 4.8 8.0 0.00 0.00 0.00 47 1021.0
20190823104518 24 27 4.8 8.0 0.00 0.00 0.00 48 1021.1
20190823103523 23 62 3.2 6.4 0.00 0.00 0.00 50 1021.2
20190823102519 23 104 3.2 8.0 0.00 0.00 0.00 52 1021.2
20190823101516 23 31 4.8 6.4 0.00 0.00 0.00 52 1021.1
20190823100523 23 43 3.2 9.7 0.00 0.00 0.00 52 1021.2
20190823095518 22 57 3.2 6.4 0.00 0.00 0.00 54 1021.3
20190823094530 21 36 3.2 4.8 0.00 0.00 0.00 57 1021.3
20190823093522 21 46 3.2 8.0 0.00 0.00 0.00 58 1021.7
20190823092519 21 39 3.2 4.8 0.00 0.00 0.00 59 1021.6
20190823091518 20 43 3.2 6.4 0.00 0.00 0.00 61 1021.5
20190823090523 19 37 1.6 8.0 0.00 0.00 0.00 65 1021.5
20190823085519 20 23 1.6 6.4 0.00 0.00 0.00 65 1021.6
20190823084525 19 4 0.0 3.2 0.00 0.00 0.00 68 1021.6
20190823083521 17 75 0.0 4.8 0.00 0.00 0.00 72 1021.4
20190823082517 17 89 1.6 4.8 0.00 0.00 0.00 71 1021.4
20190823081524 17 78 1.6 3.2 0.00 0.00 0.00 71 1021.7
20190823080521 18 55 1.6 11.3 0.00 0.00 0.00 69 1021.7
20190823075516 18 99 0.0 3.2 0.00 0.00 0.00 72 1021.7
20190823074523 17 328 0.0 1.6 0.00 0.00 0.00 78 1021.6
20190823073520 16 80 0.0 4.8 0.00 0.00 0.00 78 1021.6
20190823072516 15 90 0.0 3.2 0.00 0.00 0.00 81 1021.6
20190823071522 15 0.0 0.0 0.00 0.00 0.00 82 1021.7
20190823070518 14 0.0 0.0 0.00 0.00 0.00 82 1021.7
20190823065525 14 262 0.0 0.0 0.00 0.00 0.00 84 1021.7
20190823064520 13 296 0.0 1.6 0.00 0.00 0.00 84 1021.6
20190823063516 13 272 0.0 1.6 0.00 0.00 0.00 84 1021.6
20190823062523 12 270 0.0 1.6 0.00 0.00 0.00 83 1021.5
20190823061519 12 218 0.0 0.0 0.00 0.00 0.00 82 1021.2
20190823060525 12 90 0.0 1.6 0.00 0.00 0.00 81 1021.3
20190823055521 12 0.0 0.0 0.00 0.00 0.00 81 1021.4
20190823054523 11 0.0 0.0 0.00 0.00 0.00 81 1021.4
20190823053523 11 270 0.0 1.6 0.00 0.00 0.00 83 1021.2
20190823052518 10 238 0.0 0.0 0.00 0.00 0.00 84 1021.1
20190823051525 10 332 0.0 0.0 0.00 0.00 0.00 83 1021.1
20190823050521 10 257 0.0 0.0 0.00 0.00 0.00 83 1021.1
20190823045518 10 259 0.0 1.6 0.00 0.00 0.00 83 1021.0
20190823044523 10 251 0.0 1.6 0.00 0.00 0.00 83 1021.0
20190823043521 10 247 0.0 1.6 0.00 0.00 0.00 83 1021.1
20190823042526 10 270 0.0 0.0 0.00 0.00 0.00 83 1021.1
20190823041522 10 288 1.6 1.6 0.00 0.00 0.00 83 1021.1
20190823040518 10 270 0.0 3.2 0.00 0.00 0.00 83 1021.0
20190823035525 10 281 0.0 1.6 0.00 0.00 0.00 83 1020.9
20190823034521 10 259 0.0 1.6 0.00 0.00 0.00 83 1020.9
20190823033517 10 274 0.0 1.6 0.00 0.00 0.00 83 1020.9
20190823032524 10 0.0 0.0 0.00 0.00 0.00 83 1020.9
20190823031519 10 0.0 0.0 0.00 0.00 0.00 82 1021.2
20190823030526 10 276 0.0 0.0 0.00 0.00 0.00 82 1021.2
20190823025520 10 270 0.0 1.6 0.00 0.00 0.00 82 1020.6
20190823024518 11 0.0 0.0 0.00 0.00 0.00 82 1020.7
20190823023524 11 0.0 0.0 0.00 0.00 0.00 82 1021.3
20190823022519 11 284 0.0 1.6 0.00 0.00 0.00 82 1021.3
20190823021515 11 246 0.0 1.6 0.00 0.00 0.00 82 1021.5
20190823020522 11 258 0.0 0.0 0.00 0.00 0.00 82 1021.5
20190823015519 11 261 0.0 0.0 0.00 0.00 0.00 82 1021.4
20190823014525 11 257 0.0 3.2 0.00 0.00 0.00 82 1021.5
20190823013521 11 252 0.0 0.0 0.00 0.00 0.00 81 1021.7
20190823012517 12 249 0.0 1.6 0.00 0.00 0.00 81 1021.7
20190823011523 12 248 0.0 3.2 0.00 0.00 0.00 81 1021.7
20190823010519 12 266 0.0 1.6 0.00 0.00 0.00 81 1021.7
20190823005525 12 253 0.0 1.6 0.00 0.00 0.00 81 1021.7
20190823004520 12 271 1.6 1.6 0.00 0.00 0.00 81 1021.8
20190823003517 12 336 0.0 1.6 0.00 0.00 0.00 81 1021.9
20190823002525 12 275 0.0 0.0 0.00 0.00 0.00 81 1021.9
20190823001522 12 280 0.0 1.6 0.00 0.00 0.00 80 1021.9
20190823000518 13 257 0.0 1.6 0.00 0.00 0.00 80 1022.0
20190822235523 13 269 0.0 1.6 0.00 0.00 0.00 80 1022.3
20190822234520 13 270 1.6 3.2 0.00 0.00 0.00 80 1022.3
20190822233517 13 280 0.0 1.6 0.00 0.00 0.00 80 1022.3
20190822232523 13 262 0.0 1.6 0.00 0.00 0.00 79 1022.3
20190822231520 14 270 0.0 1.6 0.00 0.00 0.00 79 1022.4
20190822230525 14 259 0.0 1.6 0.00 0.00 0.00 79 1022.4
20190822225521 14 258 0.0 0.0 0.00 0.00 0.00 79 1022.7
20190822224517 15 255 0.0 0.0 0.00 0.00 0.00 79 1022.6
20190822223521 15 261 0.0 1.6 0.00 0.00 0.00 78 1022.5
20190822222516 15 247 0.0 1.6 0.00 0.00 0.00 78 1022.5
20190822221523 15 0.0 0.0 0.00 0.00 0.00 78 1022.7
20190822220520 15 0.0 0.0 0.00 0.00 0.00 78 1022.7
20190822215525 15 0.0 0.0 0.00 0.00 0.00 77 1022.6
20190822214523 16 0.0 0.0 0.00 0.00 0.00 77 1022.7
20190822213519 16 247 0.0 0.0 0.00 0.00 0.00 76 1022.8
20190822212524 16 230 0.0 0.0 0.00 0.00 0.00 76 1022.8
20190822211521 16 79 0.0 0.0 0.00 0.00 0.00 75 1022.6
20190822210519 16 0.0 0.0 0.00 0.00 0.00 75 1022.7
20190822205523 17 88 0.0 0.0 0.00 0.00 0.00 75 1023.0
20190822204520 17 231 0.0 0.0 0.00 0.00 0.00 74 1022.9
20190822203516 17 75 0.0 1.6 0.00 0.00 0.00 74 1022.7
20190822202523 17 110 0.0 0.0 0.00 0.00 0.00 73 1022.6
20190822201519 17 0.0 0.0 0.00 0.00 0.00 72 1022.5
20190822200515 17 353 0.0 0.0 0.00 0.00 0.00 71 1022.6
20190822195522 18 165 0.0 3.2 0.00 0.00 0.00 71 1022.7
20190822194518 18 326 0.0 1.6 0.00 0.00 0.00 70 1022.7
20190822193525 18 198 0.0 1.6 0.00 0.00 0.00 68 1022.2
20190822192521 18 41 0.0 1.6 0.00 0.00 0.00 67 1022.2
20190822191518 19 153 0.0 1.6 0.00 0.00 0.00 66 1021.9
20190822190525 19 87 0.0 0.0 0.00 0.00 0.00 66 1022.0
20190822185522 19 100 0.0 1.6 0.00 0.00 0.00 65 1021.9
20190822184518 20 293 0.0 1.6 0.00 0.00 0.00 64 1021.9
20190822183525 20 209 0.0 1.6 0.00 0.00 0.00 63 1021.7
20190822182521 20 221 0.0 3.2 0.00 0.00 0.00 62 1021.7
20190822181517 20 108 0.0 1.6 0.00 0.00 0.00 60 1021.4
20190822180525 20 57 0.0 4.8 0.00 0.00 0.00 60 1021.4
20190822175521 20 35 1.6 1.6 0.00 0.00 0.00 59 1021.3
20190822174517 21 38 1.6 3.2 0.00 0.00 0.00 58 1021.3
20190822173524 21 332 1.6 4.8 0.00 0.00 0.00 58 1021.1
20190822172521 21 63 3.2 3.2 0.00 0.00 0.00 57 1021.1
20190822171518 21 345 3.2 6.4 0.00 0.00 0.00 56 1021.2
20190822170535 21 53 1.6 8.0 0.00 0.00 0.00 55 1021.1
20190822165522 22 69 1.6 6.4 0.00 0.00 0.00 55 1020.8
20190822164518 22 32 1.6 1.6 0.00 0.00 0.00 55 1020.7
20190822163525 22 14 3.2 9.7 0.00 0.00 0.00 54 1020.7
20190822162521 22 36 3.2 4.8 0.00 0.00 0.00 53 1020.6
20190822161517 22 2 3.2 4.8 0.00 0.00 0.00 53 1020.4
20190822160524 22 4 3.2 6.4 0.00 0.00 0.00 53 1020.4
20190822155520 22 27 1.6 3.2 0.00 0.00 0.00 53 1020.3
20190822154516 22 64 3.2 4.8 0.00 0.00 0.00 52 1020.3
20190822153522 23 53 4.8 8.0 0.00 0.00 0.00 51 1020.5
20190822152519 23 142 1.6 6.4 0.00 0.00 0.00 51 1020.6
20190822151515 23 73 1.6 4.8 0.00 0.00 0.00 51 1021.0
20190822150523 23 16 3.2 6.4 0.00 0.00 0.00 51 1020.9
20190822145519 24 19 1.6 6.4 0.00 0.00 0.00 50 1020.3
20190822144517 23 305 1.6 3.2 0.00 0.00 0.00 51 1020.3
20190822143525 23 357 1.6 3.2 0.00 0.00 0.00 51 1020.3
20190822142522 23 145 3.2 4.8 0.00 0.00 0.00 50 1020.3
20190822141519 24 2 4.8 6.4 0.00 0.00 0.00 49 1020.4